CW0146 Weather Reports


Display with metric or nautical units.
time (UTC)temp
F
wind
direction
speed
MPH
gust
MPH
rain 1hr
in
rain 24hr
in
rain mn
in
humidity
%
barometer
mb
20260508062954 60 100 1.0 2.0 0.00 0.00 0.00 89 1015.0
20260508062454 60 113 1.0 2.0 0.00 0.00 0.00 89 1015.0
20260508061954 60 104 1.0 2.0 0.00 0.00 0.00 89 1016.0
20260508061454 60 110 1.0 3.0 0.00 0.00 0.00 89 1015.0
20260508060954 60 94 0.0 2.0 0.00 0.00 0.00 89 1015.0
20260508060454 60 110 1.0 2.0 0.00 0.00 0.00 89 1015.0
20260508055954 60 125 1.0 2.0 0.00 0.00 0.00 89 1015.0
20260508055454 60 105 1.0 2.0 0.00 0.00 0.00 89 1015.0
20260508054955 60 97 1.0 2.0 0.00 0.00 0.00 89 1015.0
20260508054454 60 100 1.0 2.0 0.00 0.00 0.00 88 1015.0
20260508053954 60 81 1.0 2.0 0.00 0.00 0.00 88 1015.0
20260508053454 60 68 1.0 2.0 0.00 0.00 0.00 88 1015.0
20260508052954 60 107 1.0 2.0 0.00 0.00 0.00 88 1015.0
20260508052454 60 62 1.0 1.0 0.00 0.00 0.00 88 1015.0
20260508051954 60 30 0.0 2.0 0.00 0.00 0.00 88 1015.0
20260508051454 60 106 1.0 2.0 0.00 0.00 0.00 88 1015.0
20260508050954 60 97 1.0 2.0 0.00 0.00 0.00 88 1015.0
20260508050454 60 95 1.0 2.0 0.00 0.00 0.00 88 1015.0
20260508045954 61 99 1.0 2.0 0.00 0.00 0.00 87 1016.0
20260508045454 61 127 1.0 2.0 0.00 0.00 0.00 87 1016.0
20260508044954 61 271 0.0 1.0 0.00 0.00 0.00 86 1016.0
20260508044454 61 53 1.0 1.0 0.00 0.00 0.00 86 1015.0
20260508043954 60 278 1.0 2.0 0.00 0.00 0.00 86 1015.0
20260508043454 60 120 0.0 2.0 0.00 0.00 0.00 86 1015.0
20260508042954 60 95 1.0 2.0 0.00 0.00 0.00 86 1015.0
20260508042455 60 92 2.0 3.0 0.00 0.00 0.00 86 1015.0
20260508041954 60 66 1.0 2.0 0.00 0.00 0.00 86 1016.0
20260508041454 60 296 1.0 2.0 0.00 0.00 0.00 86 1016.0
20260508040954 60 107 0.0 1.0 0.00 0.00 0.00 86 1016.0
20260508040454 61 96 1.0 2.0 0.00 0.00 0.00 86 1016.0
20260508035955 61 72 1.0 1.0 0.00 0.00 0.00 85 1016.0
20260508035455 61 98 1.0 2.0 0.00 0.00 0.00 85 1016.0
20260508034954 61 108 1.0 3.0 0.00 0.00 0.00 85 1016.0
20260508034454 61 127 0.0 1.0 0.00 0.00 0.00 84 1016.0
20260508033954 61 109 1.0 2.0 0.00 0.00 0.00 84 1016.0
20260508033454 61 135 1.0 2.0 0.00 0.00 0.00 84 1016.0
20260508032954 61 4 1.0 2.0 0.00 0.00 0.00 84 1016.0
20260508032454 61 354 1.0 2.0 0.00 0.00 0.00 84 1016.0
20260508031954 61 358 0.0 1.0 0.00 0.00 0.00 84 1016.0
20260508031454 61 106 0.0 2.0 0.00 0.00 0.00 83 1016.0
20260508030954 61 105 0.0 2.0 0.00 0.00 0.00 83 1015.0
20260508030454 61 108 1.0 2.0 0.00 0.00 0.00 83 1015.0
20260508025954 62 118 1.0 2.0 0.00 0.00 0.00 82 1016.0
20260508025454 62 120 0.0 3.0 0.00 0.00 0.00 82 1015.0
20260508024955 62 103 1.0 2.0 0.00 0.00 0.00 82 1015.0
20260508024454 62 129 1.0 2.0 0.00 0.00 0.00 82 1015.0
20260508023954 62 126 0.0 2.0 0.00 0.00 0.00 81 1015.0
20260508023454 62 319 0.0 1.0 0.00 0.00 0.00 81 1015.0
20260508022954 62 99 1.0 2.0 0.00 0.00 0.00 81 1014.0
20260508022454 62 79 1.0 2.0 0.00 0.00 0.00 80 1014.0
20260508021954 62 88 1.0 2.0 0.00 0.00 0.00 80 1014.0
20260508021454 62 132 0.0 1.0 0.00 0.00 0.00 80 1014.0
20260508020954 62 70 1.0 2.0 0.00 0.00 0.00 79 1014.0
20260508020454 62 99 1.0 2.0 0.00 0.00 0.00 79 1014.0
20260508015957 62 74 1.0 2.0 0.00 0.00 0.00 79 1014.0
20260508015454 62 64 1.0 2.0 0.00 0.00 0.00 79 1014.0
20260508014954 63 106 1.0 2.0 0.00 0.00 0.00 79 1015.0
20260508014454 63 99 0.0 2.0 0.00 0.00 0.00 78 1014.0
20260508013954 63 70 1.0 1.0 0.00 0.00 0.00 77 1014.0
20260508013454 63 69 1.0 2.0 0.00 0.00 0.00 77 1014.0
20260508012955 63 79 1.0 2.0 0.00 0.00 0.00 77 1014.0
20260508012454 63 59 2.0 3.0 0.00 0.00 0.00 76 1014.0
20260508011954 63 76 2.0 3.0 0.00 0.00 0.00 76 1014.0
20260508011454 63 69 1.0 2.0 0.00 0.00 0.00 76 1014.0
20260508010954 63 77 1.0 2.0 0.00 0.00 0.00 75 1014.0
20260508010454 64 78 1.0 2.0 0.00 0.00 0.00 75 1015.0
20260508005954 64 19 1.0 3.0 0.00 0.00 0.00 74 1015.0
20260508005454 64 98 0.0 1.0 0.00 0.00 0.00 74 1015.0
20260508004954 64 76 3.0 4.0 0.00 0.00 0.00 74 1015.0
20260508004455 64 3 0.0 1.0 0.00 0.00 0.00 73 1015.0
20260508003955 64 65 2.0 3.0 0.00 0.00 0.00 73 1015.0
20260508003454 64 10 1.0 3.0 0.00 0.00 0.00 72 1015.0
20260508002954 65 78 2.0 4.0 0.00 0.00 0.00 71 1015.0
20260508002454 65 95 0.0 1.0 0.00 0.00 0.00 71 1015.0
20260508001955 65 68 2.0 2.0 0.00 0.00 0.00 70 1015.0
20260508001454 65 62 1.0 2.0 0.00 0.00 0.00 71 1015.0
20260508000954 65 47 1.0 2.0 0.00 0.00 0.00 70 1015.0
20260508000457 65 66 2.0 2.0 0.00 0.00 0.00 70 1016.0
20260507235954 65 333 1.0 2.0 0.00 0.00 0.00 71 1016.0
20260507235454 65 73 1.0 1.0 0.00 0.00 0.00 69 1016.0
20260507234954 66 74 1.0 3.0 0.00 0.00 0.00 69 1016.0
20260507234454 66 69 1.0 3.0 0.00 0.00 0.00 69 1016.0
20260507233954 66 59 2.0 3.0 0.00 0.00 0.00 70 1015.0
20260507233455 66 86 0.0 1.0 0.00 0.00 0.00 70 1016.0
20260507232954 66 40 0.0 1.0 0.00 0.00 0.00 70 1016.0
20260507232454 66 65 1.0 2.0 0.00 0.00 0.00 71 1015.0
20260507231954 67 60 2.0 3.0 0.00 0.00 0.00 69 1015.0
20260507231454 67 48 1.0 2.0 0.00 0.00 0.00 68 1015.0
20260507230954 67 356 1.0 2.0 0.00 0.00 0.00 68 1015.0
20260507230454 67 55 1.0 2.0 0.00 0.00 0.00 69 1015.0
20260507225954 67 59 0.0 1.0 0.00 0.00 0.00 69 1015.0
20260507225454 67 35 1.0 2.0 0.00 0.00 0.00 69 1015.0
20260507224954 67 64 1.0 2.0 0.00 0.00 0.00 68 1015.0
20260507224454 67 54 0.0 1.0 0.00 0.00 0.00 69 1015.0
20260507223954 67 45 1.0 2.0 0.00 0.00 0.00 68 1015.0
20260507223454 67 61 2.0 3.0 0.00 0.00 0.00 68 1016.0
20260507222954 67 17 1.0 2.0 0.00 0.00 0.00 69 1016.0
20260507222454 67 65 1.0 2.0 0.00 0.00 0.00 69 1016.0
20260507221954 67 20 1.0 2.0 0.00 0.00 0.00 69 1016.0
20260507221456 67 19 1.0 3.0 0.00 0.00 0.00 68 1016.0
20260507220954 67 345 2.0 3.0 0.00 0.00 0.00 67 1016.0
20260507220455 67 35 2.0 6.0 0.00 0.00 0.00 69 1016.0
20260507215954 67 347 1.0 2.0 0.00 0.00 0.00 69 1016.0
20260507215454 67 7 2.0 3.0 0.00 0.00 0.00 68 1016.0
20260507214954 68 356 2.0 4.0 0.00 0.00 0.00 68 1016.0
20260507214455 68 312 2.0 3.0 0.00 0.00 0.00 67 1016.0
20260507213954 68 331 3.0 6.0 0.00 0.00 0.00 68 1016.0
20260507213455 68 13 1.0 4.0 0.00 0.00 0.00 69 1016.0
20260507212954 67 349 1.0 3.0 0.00 0.00 0.00 69 1016.0
20260507212454 66 39 1.0 2.0 0.00 0.00 0.00 70 1016.0
20260507211954 66 57 1.0 2.0 0.00 0.00 0.00 70 1015.0
20260507211454 66 45 1.0 2.0 0.00 0.00 0.00 71 1015.0
20260507210955 65 47 2.0 4.0 0.00 0.00 0.00 72 1016.0
20260507210454 65 54 2.0 3.0 0.00 0.00 0.00 71 1016.0
20260507205954 66 80 1.0 2.0 0.00 0.00 0.00 72 1016.0
20260507205454 66 73 2.0 4.0 0.00 0.00 0.00 71 1017.0
20260507204954 66 9 2.0 5.0 0.00 0.00 0.00 71 1017.0
20260507204454 66 326 1.0 3.0 0.00 0.00 0.00 71 1017.0
20260507203955 66 340 1.0 4.0 0.00 0.00 0.00 71 1016.0
20260507203454 66 21 1.0 2.0 0.00 0.00 0.00 72 1017.0
20260507202954 66 12 1.0 4.0 0.00 0.00 0.00 71 1017.0
20260507202454 66 358 1.0 2.0 0.00 0.00 0.00 71 1017.0
20260507201954 66 321 1.0 3.0 0.00 0.00 0.00 71 1017.0
20260507201454 66 71 2.0 2.0 0.00 0.00 0.00 72 1016.0
20260507200957 65 65 2.0 2.0 0.00 0.00 0.00 72 1017.0
20260507200454 65 326 0.0 2.0 0.00 0.00 0.00 72 1017.0
20260507195954 65 44 1.0 3.0 0.00 0.00 0.00 71 1016.0
20260507195454 65 38 1.0 2.0 0.00 0.00 0.00 72 1017.0
20260507194954 65 23 1.0 2.0 0.00 0.00 0.00 72 1017.0
20260507194454 65 356 1.0 2.0 0.00 0.00 0.00 72 1017.0
20260507193954 65 57 2.0 3.0 0.00 0.00 0.00 72 1017.0
20260507193454 64 240 1.0 2.0 0.00 0.00 0.00 74 1017.0
20260507192954 64 55 2.0 3.0 0.00 0.00 0.00 73 1017.0
20260507192454 64 4 1.0 2.0 0.00 0.00 0.00 74 1017.0
20260507191954 63 56 2.0 3.0 0.00 0.00 0.00 74 1017.0
20260507191454 63 66 2.0 4.0 0.00 0.00 0.00 74 1017.0
20260507190954 63 67 2.0 3.0 0.00 0.00 0.00 74 1018.0
20260507190454 63 58 1.0 2.0 0.00 0.00 0.00 74 1018.0
20260507185954 63 61 2.0 4.0 0.00 0.00 0.00 74 1017.0
20260507185454 64 62 2.0 3.0 0.00 0.00 0.00 73 1017.0
20260507184954 64 75 2.0 3.0 0.00 0.00 0.00 74 1017.0
20260507184455 64 74 1.0 2.0 0.00 0.00 0.00 74 1017.0
20260507183954 63 74 2.0 3.0 0.00 0.00 0.00 74 1017.0
20260507183454 63 68 2.0 3.0 0.00 0.00 0.00 74 1017.0
20260507182954 64 61 2.0 4.0 0.00 0.00 0.00 74 1017.0
20260507182454 64 57 2.0 4.0 0.00 0.00 0.00 74 1017.0
20260507181954 64 29 2.0 3.0 0.00 0.00 0.00 74 1018.0
20260507181455 64 31 2.0 5.0 0.00 0.00 0.00 73 1018.0
20260507180954 64 42 1.0 2.0 0.00 0.00 0.00 74 1018.0
20260507180455 64 31 1.0 2.0 0.00 0.00 0.00 74 1018.0
20260507175954 65 40 2.0 4.0 0.00 0.00 0.00 73 1018.0
20260507175454 65 48 1.0 2.0 0.00 0.00 0.00 75 1017.0
20260507174959 64 65 2.0 3.0 0.00 0.00 0.00 74 1017.0
20260507174455 64 66 2.0 3.0 0.00 0.00 0.00 76 1017.0
20260507173955 63 26 1.0 2.0 0.00 0.00 0.00 78 1017.0
20260507173454 63 54 1.0 2.0 0.00 0.00 0.00 78 1017.0
20260507172955 62 73 1.0 2.0 0.00 0.00 0.00 79 1017.0
20260507172454 62 71 1.0 2.0 0.00 0.00 0.00 80 1017.0
20260507171954 61 72 3.0 5.0 0.00 0.00 0.00 79 1017.0
20260507171454 61 81 2.0 4.0 0.00 0.00 0.00 79 1017.0
20260507170954 61 74 1.0 2.0 0.00 0.00 0.00 80 1017.0
20260507170454 61 71 3.0 4.0 0.00 0.00 0.00 80 1017.0
20260507165954 61 350 2.0 4.0 0.00 0.00 0.00 80 1018.0
20260507165454 61 77 2.0 3.0 0.00 0.00 0.00 81 1018.0
20260507164954 61 5 1.0 2.0 0.00 0.00 0.00 81 1018.0
20260507164454 60 89 1.0 2.0 0.00 0.00 0.00 82 1018.0
20260507163537 60 84 1.0 2.0 0.00 0.00 0.00 82 1019.0
20260507162954 60 83 2.0 4.0 0.00 0.00 0.00 82 1019.0
20260507162454 60 67 1.0 2.0 0.00 0.00 0.00 82 1020.0
20260507161954 60 314 2.0 7.0 0.00 0.00 0.00 82 1019.0
20260507161454 59 189 0.0 2.0 0.00 0.00 0.00 83 1019.0
20260507160954 60 84 2.0 4.0 0.00 0.00 0.00 82 1019.0
20260507160454 60 88 1.0 2.0 0.00 0.00 0.00 82 1019.0
20260507155954 60 329 2.0 6.0 0.00 0.00 0.00 82 1019.0
20260507155454 59 91 1.0 3.0 0.00 0.00 0.00 82 1019.0
20260507154954 59 355 2.0 3.0 0.00 0.00 0.00 82 1019.0
20260507154454 59 81 1.0 2.0 0.00 0.00 0.00 82 1019.0
20260507153954 59 81 2.0 4.0 0.00 0.00 0.00 83 1019.0
20260507153458 59 18 1.0 2.0 0.00 0.00 0.00 83 1018.0
20260507152955 59 68 2.0 3.0 0.00 0.00 0.00 84 1019.0
20260507152454 59 39 2.0 3.0 0.00 0.00 0.00 84 1019.0
20260507151954 59 282 2.0 6.0 0.00 0.00 0.00 85 1019.0
20260507151454 59 273 1.0 4.0 0.00 0.00 0.00 85 1019.0
20260507150954 59 94 1.0 2.0 0.00 0.00 0.00 85 1019.0
20260507150455 59 7 1.0 3.0 0.00 0.00 0.00 85 1019.0
20260507145954 59 23 1.0 3.0 0.00 0.00 0.00 85 1019.0
20260507145454 59 24 1.0 4.0 0.00 0.00 0.00 86 1019.0
20260507144954 59 82 1.0 2.0 0.00 0.00 0.00 86 1019.0
20260507144457 59 92 2.0 2.0 0.00 0.00 0.00 86 1019.0
20260507143956 59 52 1.0 2.0 0.00 0.00 0.00 86 1019.0
20260507143458 59 74 2.0 3.0 0.00 0.00 0.00 86 1018.0
20260507142954 59 74 1.0 3.0 0.00 0.00 0.00 86 1018.0
20260507142454 59 79 2.0 4.0 0.00 0.00 0.00 86 1018.0
20260507141954 59 82 2.0 3.0 0.00 0.00 0.00 86 1018.0
20260507141454 59 66 2.0 3.0 0.00 0.00 0.00 87 1018.0
20260507140955 59 77 2.0 3.0 0.00 0.00 0.00 87 1018.0
20260507140454 59 97 2.0 4.0 0.00 0.00 0.00 88 1018.0
20260507135955 59 83 2.0 3.0 0.00 0.00 0.00 89 1018.0
20260507135455 59 85 2.0 3.0 0.00 0.00 0.00 89 1018.0
20260507134954 59 79 2.0 4.0 0.00 0.00 0.00 89 1018.0
20260507134454 59 78 2.0 3.0 0.00 0.00 0.00 89 1018.0
20260507133954 60 95 1.0 2.0 0.00 0.00 0.00 90 1018.0
20260507133459 60 83 2.0 5.0 0.00 0.00 0.00 90 1018.0
20260507132954 59 24 2.0 4.0 0.00 0.00 0.00 90 1018.0
20260507132455 59 87 1.0 2.0 0.00 0.00 0.00 91 1018.0
20260507131954 59 78 2.0 3.0 0.00 0.00 0.00 91 1018.0
20260507131458 59 91 2.0 3.0 0.00 0.00 0.00 92 1018.0
20260507130954 59 63 1.0 2.0 0.00 0.00 0.00 92 1018.0
20260507130455 59 68 1.0 3.0 0.00 0.00 0.00 92 1018.0
20260507125955 59 96 2.0 2.0 0.00 0.00 0.00 92 1018.0
20260507125454 59 56 2.0 4.0 0.00 0.00 0.00 92 1018.0
20260507124955 58 51 2.0 5.0 0.00 0.00 0.00 93 1018.0
20260507124456 58 72 2.0 3.0 0.00 0.00 0.00 93 1018.0
20260507123954 58 14 2.0 3.0 0.00 0.00 0.00 93 1018.0
20260507123454 59 29 2.0 5.0 0.00 0.00 0.00 93 1018.0
20260507122954 59 331 3.0 6.0 0.00 0.00 0.00 93 1018.0
20260507122455 59 0 2.0 4.0 0.00 0.00 0.00 93 1018.0
20260507121954 58 56 1.0 2.0 0.00 0.00 0.00 93 1018.0
20260507121456 58 94 1.0 2.0 0.00 0.00 0.00 93 1017.0
20260507120955 58 75 1.0 3.0 0.00 0.00 0.00 93 1017.0
20260507120454 58 81 2.0 2.0 0.00 0.00 0.00 93 1017.0
20260507115954 58 77 2.0 5.0 0.00 0.00 0.00 93 1017.0
20260507115455 58 64 2.0 3.0 0.00 0.00 0.00 93 1017.0
20260507114954 58 41 2.0 2.0 0.00 0.00 0.00 93 1017.0
20260507114454 58 331 2.0 4.0 0.00 0.00 0.00 93 1017.0
20260507113955 58 80 2.0 3.0 0.00 0.00 0.00 93 1017.0
20260507113454 58 42 2.0 2.0 0.00 0.00 0.00 93 1017.0
20260507112954 58 65 2.0 3.0 0.00 0.00 0.00 93 1017.0
20260507112455 58 70 2.0 4.0 0.00 0.00 0.00 93 1017.0
20260507111954 58 90 1.0 2.0 0.00 0.00 0.00 93 1017.0
20260507111455 58 55 2.0 3.0 0.00 0.00 0.00 92 1017.0
20260507110955 58 34 2.0 4.0 0.00 0.00 0.00 92 1017.0
20260507110454 58 29 2.0 3.0 0.00 0.00 0.00 92 1017.0
20260507105954 58 57 2.0 4.0 0.00 0.00 0.00 92 1017.0
20260507105454 58 16 2.0 4.0 0.00 0.00 0.00 92 1017.0
20260507104955 58 359 1.0 2.0 0.00 0.00 0.00 92 1017.0
20260507104454 58 51 1.0 2.0 0.00 0.00 0.00 92 1017.0
20260507103954 58 73 1.0 3.0 0.00 0.00 0.00 92 1017.0
20260507103454 58 70 2.0 4.0 0.00 0.00 0.00 92 1016.0
20260507102954 58 68 2.0 2.0 0.00 0.00 0.00 92 1017.0
20260507102454 58 34 2.0 4.0 0.00 0.00 0.00 92 1017.0
20260507101954 58 29 2.0 3.0 0.00 0.00 0.00 91 1017.0
20260507101454 58 60 2.0 4.0 0.00 0.00 0.00 91 1017.0
20260507100954 59 1 2.0 3.0 0.00 0.00 0.00 91 1017.0
20260507100454 59 85 2.0 3.0 0.00 0.00 0.00 91 1017.0
20260507095955 59 82 1.0 3.0 0.00 0.00 0.00 91 1017.0
20260507095454 59 69 2.0 4.0 0.00 0.00 0.00 91 1017.0
20260507094954 59 84 1.0 2.0 0.00 0.00 0.00 91 1017.0
20260507094454 59 284 1.0 4.0 0.00 0.00 0.00 91 1017.0
20260507093955 59 78 1.0 2.0 0.00 0.00 0.00 91 1017.0
20260507093454 59 102 1.0 2.0 0.00 0.00 0.00 90 1017.0
20260507092955 59 87 1.0 3.0 0.00 0.00 0.00 90 1017.0
20260507092455 59 95 1.0 2.0 0.00 0.00 0.00 90 1017.0
20260507091954 59 60 1.0 3.0 0.00 0.00 0.00 90 1017.0
20260507091454 59 88 1.0 2.0 0.00 0.00 0.00 90 1017.0
20260507090954 59 83 2.0 4.0 0.00 0.00 0.00 90 1016.0
20260507090454 59 99 1.0 3.0 0.00 0.00 0.00 90 1016.0
20260507085954 59 95 1.0 2.0 0.00 0.00 0.00 90 1016.0
20260507085454 59 107 1.0 2.0 0.00 0.00 0.00 89 1016.0
20260507084954 59 71 2.0 4.0 0.00 0.00 0.00 89 1016.0
20260507084455 59 23 2.0 4.0 0.00 0.00 0.00 89 1016.0
20260507083954 59 75 1.0 2.0 0.00 0.00 0.00 89 1016.0
20260507083454 59 58 1.0 2.0 0.00 0.00 0.00 89 1016.0
20260507082954 59 95 1.0 2.0 0.00 0.00 0.00 89 1016.0
20260507082454 59 82 2.0 3.0 0.00 0.00 0.00 89 1015.0
20260507081954 59 94 1.0 2.0 0.00 0.00 0.00 89 1016.0
20260507081455 59 90 2.0 3.0 0.00 0.00 0.00 89 1016.0
20260507080954 59 84 2.0 3.0 0.00 0.00 0.00 89 1016.0
20260507080455 59 80 2.0 3.0 0.00 0.00 0.00 89 1016.0
20260507075954 59 73 1.0 2.0 0.00 0.00 0.00 89 1015.0
20260507075454 59 92 1.0 2.0 0.00 0.00 0.00 89 1015.0
20260507074954 59 77 2.0 3.0 0.00 0.00 0.00 88 1015.0
20260507074454 59 65 2.0 3.0 0.00 0.00 0.00 88 1016.0
20260507073959 59 79 2.0 4.0 0.00 0.00 0.00 88 1016.0
20260507073454 60 86 2.0 4.0 0.00 0.00 0.00 88 1015.0
20260507072954 60 78 2.0 4.0 0.00 0.00 0.00 88 1015.0
20260507072454 60 87 2.0 2.0 0.00 0.00 0.00 88 1015.0
20260507071954 60 75 2.0 3.0 0.00 0.00 0.00 88 1015.0
20260507071454 60 93 2.0 2.0 0.00 0.00 0.00 87 1016.0
20260507070955 60 83 2.0 3.0 0.00 0.00 0.00 87 1016.0
20260507070454 60 80 2.0 4.0 0.00 0.00 0.00 87 1016.0
20260507065954 60 86 2.0 2.0 0.00 0.00 0.00 87 1016.0
20260507065454 60 99 1.0 2.0 0.00 0.00 0.00 86 1015.0
20260507064954 60 89 1.0 2.0 0.00 0.00 0.00 86 1015.0
20260507064454 60 92 1.0 2.0 0.00 0.00 0.00 86 1015.0
20260507063954 60 63 2.0 4.0 0.00 0.00 0.00 85 1015.0
20260507063455 60 90 2.0 3.0 0.00 0.00 0.00 85 1015.0